Home > Weather > Iquitos > Past weeks

Flag for Peru Past Weather in Iquitos, Loreto, Peru — Yesterday and Last 2 Weeks

Now
77 °F

Partly cloudy.


Feels Like: 78 °F
Forecast: 71 / 88 °F
Wind: No wind

Location: Iquitos Airport

Current Time: Jun 24, 2016 at 8:41:04 PM

Latest Report: Jun 24, 2016 at 8:00 PM


Visibility: N/A

Pressure: 29.92 "Hg

Humidity: 89%

Dew Point: 73 °F

Location of IquitosLocation

Past Weather in Iquitos — Graph

°F

Iquitos Temperature Yesterday

Maximum temperature yesterday: 84 °F (at 2:00 PM)
Minimum temperature yesterday: 72 °F (at 1:00 AM)
Average temperature yesterday: 77 °F

High & Low Weather Summary for the Past Weeks

 TemperatureHumidityPressure
High90 °F (Jun 16, 2:00 PM)100% (Jun 21, 5:04 AM)30.15 "Hg (Jun 21, 5:04 AM)
Low68 °F (Jun 13, 6:00 AM)55% (Jun 14, 3:00 PM)29.86 "Hg (Jun 17, 3:00 PM)
Average77 °F85%30.00 "Hg
* Reported Jun 9 7:00 PM — Jun 24 7:00 PM, Iquitos, Weather by CustomWeather, © 2016

Note: Actual official high and low records may vary slightly from our data, if they occured in-between our weather recording intervals... More about our weather records

Advertising

Iquitos Weather History for the Previous 24 Hours

Scroll right to see more
 ConditionsComfort  
Time TempWeatherWind HumidityBarometerVisibility
7:00 PM
Fri, Jun 24
79 °FPartly cloudy.No wind84%29.89 "HgN/A
6:00 PM81 °FPartly cloudy.3 mph79%29.86 "HgN/A
5:00 PM84 °FScattered clouds.6 mph74%29.86 "HgN/A
4:00 PM84 °FScattered clouds.6 mph74%29.86 "HgN/A
3:00 PM84 °FScattered clouds.6 mph74%29.89 "HgN/A
2:00 PM82 °FPartly sunny.7 mph74%29.92 "HgN/A
1:00 PM84 °FPartly sunny.3 mph70%29.95 "HgN/A
12:00 PM82 °FPartly sunny.3 mph74%29.95 "HgN/A
11:00 AM81 °FPartly sunny.3 mph79%30.01 "HgN/A
10:00 AM77 °FMostly cloudy.3 mph89%30.01 "HgN/A
9:00 AM75 °FMostly cloudy.5 mph94%30.01 "HgN/A
8:00 AM75 °FMostly cloudy.3 mph94%29.98 "HgN/A
7:00 AM73 °FDrizzle. Partly sunny.No wind94%29.98 "Hg5 mi
6:00 AM73 °FDrizzle. Partly sunny.3 mph94%29.95 "Hg5 mi
5:00 AM73 °FPassing clouds.3 mph94%29.95 "Hg5 mi
4:00 AM73 °FLight rain. Passing clouds.No wind94%29.95 "Hg4 mi
3:00 AM73 °FPassing clouds.No wind94%29.92 "Hg5 mi
2:00 AM73 °FFog.No wind94%29.95 "Hg5 mi
1:00 AM73 °FFog.No wind94%29.95 "Hg5 mi
12:00 AM73 °FFog.No wind94%29.95 "Hg5 mi
11:00 PM
Thu, Jun 23
73 °FPassing clouds.No wind94%29.98 "HgN/A
10:00 PM73 °FPassing clouds.No wind94%29.98 "HgN/A
9:00 PM75 °FPassing clouds.No wind94%29.98 "HgN/A
8:00 PM75 °FPassing clouds.No wind94%29.95 "HgN/A
Weather by CustomWeather, © 2016

See weather overviewHow to use our weather pages